SCP
3 2 2 1 1 1 1 1 1 0 0 0 0 0 0 0 0 0 1 1 1 0 0 0 0 0 1 1 1 1 1 0 0 0 0 0 0 0 0 1 1 1 1
2 2 1 1 1 1 1 1 0 0 0 0 0 0 0 0 0 0 0 1 1 1 0 0 0 0 0 1 1 1 1 0 0 0 0 0 0 0 1 1 1 1 1
2 2 1 1 0 0 0 0 0 0 0 0 0 0 0 0 0 0 0 0 1 1 1 1 1 0 0 0 1 1 1 1 0 0 0 0 0 1 1 1 1 1 1
1 1 1 0 0 0 0 0 0 0 0 0 0 0 0 0 0 0 0 0 1 1 1 1 1 1 0 0 0 1 1 1 1 1 1 1 0 0 1 1 1 1 1
1 1 1 1 0 0 0 0 0 0 0 0 0 0 0 0 0 0 0 0 1 1 1 1 1 1 1 0 1 1 1 1 1 1 1 1 1 0 0 0 1 1 1
1 1 1 1 1 1 1 1 1 0 0 0 0 0 0 0 0 0 0 0 0 1 1 1 1 1 1 1 1 1 1 1 1 1 1 1 0 0 0 0 0 1 1
2 2 2 1 1 1 1 1 1 1 1 0 0 0 0 0 0 0 0 0 0 1 1 1 1 1 1 1 1 1 1 1 1 1 1 1 0 0 0 0 0 0 0
2 2 2 2 2 1 1 1 1 1 1 1 1 0 0 0 0 0 0 0 0 1 1 1 1 1 1 1 1 1 1 1 1 1 1 1 1 1 1 0 0 0 0
2 2 2 2 2 2 2 1 1 1 1 1 1 1 0 0 0 0 0 0 0 1 1 1 1 1 1 1 1 1 0 1 1 1 1 1 1 1 1 1 1 1 1
3 2 2 2 2 2 2 2 1 1 1 1 1 1 0 0 0 0 0 0 1 1 1 1 1 1 1 1 1 1 0 0 1 1 1 1 1 1 1 1 1 1 1
2 2 2 2 2 2 2 2 2 2 2 2 2 1 1 0 0 0 0 0 0 1 1 0 0 1 1 1 1 1 1 0 0 0 1 1 1 1 1 1 1 1 1
2 2 2 2 2 2 2 2 2 2 2 2 2 1 1 0 0 0 0 0 0 0 0 0 0 0 1 1 1 1 0 0 0 0 0 1 1 1 1 1 1 1 1
1 1 1 1 2 2 2 2 2 2 2 2 2 1 1 1 1 1 0 0 0 0 0 0 0 0 0 0 1 1 0 0 0 0 0 0 1 1 1 1 1 1 1
1 1 1 1 1 1 1 2 2 2 2 2 1 1 1 1 1 1 1 0 0 0 0 0 0 0 0 0 1 1 1 0 0 0 0 0 0 0 0 0 0 0 1
1 1 1 1 1 1 1 1 1 1 1 1 1 1 1 1 1 0 0 0 0 0 0 0 0 0 0 0 0 1 1 0 0 0 0 0 0 0 0 0 0 0 0
2 2 1 1 1 1 1 1 1 1 1 1 1 1 1 1 1 0 0 0 0 0 1 1 1 0 0 0 0 0 0 0 0 0 0 0 0 0 0 0 0 0 0
2 2 2 1 1 1 1 1 1 1 1 1 1 1 1 1 1 0 0 0 0 0 0 1 1 1 0 0 0 0 0 0 0 0 0 0 0 0 0 0 0 0 0
2 2 2 2 2 1 1 1 1 1 1 1 1 1 1 1 1 1 0 0 0 0 0 0 0 0 0 0 0 0 0 0 0 0 0 0 0 0 0 0 0 0 0
3 2 2 2 2 2 1 1 1 1 1 1 1 1 1 1 1 1 1 0 0 0 0 0 0 0 0 0 0 0 0 0 0 0 0 0 0 0 0 0 0 0 0
3 3 2 2 2 2 2 1 1 1 1 1 1 1 1 1 1 1 1 1 1 0 0 0 0 0 0 0 0 0 0 0 0 0 0 0 0 0 0 0 0 0 0
5 4 3 3 2 2 2 1 1 1 1 1 1 1 1 1 1 1 1 1 1 1 1 0 0 0 0 0 0 0 0 0 0 0 0 0 0 0 0 0 0 0 0
6 5 4 3 3 2 1 1 1 1 1 1 1 1 1 1 1 1 1 1 1 1 1 0 0 0 0 0 0 0 0 0 0 0 0 0 0 0 0 0 0 0 0
6 6 5 4 3 2 1 0 1 1 1 1 1 1 1 1 1 1 0 0 0 0 0 0 0 0 0 0 0 0 0 0 0 0 0 0 0 0 0 0 0 0 0
4 5 6 5 4 2 1 0 0 1 1 1 1 1 1 1 1 0 0 0 0 0 0 0 0 0 0 0 0 0 0 0 0 0 0 0 0 0 0 0 0 0 0
2 4 5 5 4 2 1 0 0 0 1 1 1 1 0 0 0 0 0 0 0 0 0 0 0 0 0 0 0 0 0 0 0 0 0 0 0 0 0 1 0 0 0
1 3 4 5 4 3 1 0 0 0 1 1 0 0 0 0 0 0 0 0 0 0 0 0 0 0 0 0 0 0 0 0 0 0 0 0 0 0 0 1 0 0 0
Wind_Speed
2 1 1 1 1 1 1 2 2 2 2 2 2 3 3 3 3 2 1 5 6 6 6 6 7 7 6 7 7 7 7 6 7 6 7 7 6 6 6 5 6 5 5
2 2 1 1 1 1 1 2 2 2 2 2 2 2 3 3 3 2 2 3 5 6 6 6 6 6 6 6 6 6 6 6 6 6 6 7 7 6 6 5 5 5 5
3 2 2 1 1 1 2 2 3 2 2 2 2 2 2 3 3 3 2 2 2 4 6 6 5 6 6 7 6 6 6 6 6 6 6 6 6 6 5 5 5 5 5
3 3 2 2 2 2 2 2 2 2 2 2 1 1 1 1 2 2 2 2 2 2 4 5 5 4 6 6 7 7 6 6 6 6 6 6 6 6 6 5 5 5 5
3 3 2 2 2 2 2 2 2 2 2 2 1 1 1 1 1 2 2 2 3 2 2 3 4 4 5 6 7 7 6 6 6 6 6 6 6 6 6 5 5 4 4
3 3 2 2 2 2 2 2 2 2 2 2 2 1 1 0 1 1 2 2 2 3 3 3 2 3 5 6 7 7 6 6 6 6 6 6 6 6 6 5 5 4 4
3 3 2 2 2 3 3 3 2 2 1 2 2 1 2 1 0 1 1 2 2 3 3 3 2 2 2 5 6 7 7 7 7 7 7 6 6 6 6 5 5 4 4
3 4 4 3 3 2 3 3 2 2 1 2 2 2 1 2 1 0 1 2 3 2 3 4 4 3 3 2 4 7 7 7 7 8 8 7 6 6 6 6 6 5 5
3 3 3 3 3 3 3 3 4 4 3 1 2 3 3 2 1 1 1 1 2 2 3 3 4 4 4 3 3 6 7 7 8 8 8 8 8 8 8 7 7 7 7
2 2 3 3 3 3 3 3 4 3 3 3 2 1 2 3 3 0 1 1 1 2 3 3 4 4 5 4 4 6 7 7 8 9 9 8 8 9 9 9 8 8 7
1 2 2 3 3 3 3 3 3 3 3 3 3 2 2 1 2 2 1 1 1 2 2 3 3 3 4 5 4 6 7 7 7 8 8 9 9 10 10 9 9 8 8
0 1 2 2 3 2 3 3 3 4 3 3 3 3 3 3 3 3 3 2 1 2 2 2 3 4 4 4 6 7 8 8 7 8 8 8 9 10 10 10 9 9 9
1 2 2 2 2 3 3 3 3 3 4 4 4 3 3 3 2 3 3 2 1 1 1 2 3 3 4 4 4 7 7 7 8 8 8 8 8 8 9 9 9 9 9
2 2 2 2 2 3 3 3 2 3 3 3 4 3 3 3 3 3 3 3 2 1 1 3 1 3 3 4 5 7 5 7 8 8 8 8 8 8 8 8 8 7 7
2 2 2 2 2 2 3 3 2 3 3 3 3 3 2 2 2 2 2 3 3 3 3 3 2 2 3 3 4 4 5 6 8 7 7 8 8 8 8 8 8 8 8
2 2 2 2 2 2 3 3 2 2 3 2 2 3 3 2 2 2 2 2 3 3 3 3 3 2 2 3 4 4 4 5 6 7 7 8 8 8 8 8 8 8 9
2 2 2 2 2 2 2 3 3 3 3 2 2 3 3 2 2 2 2 2 2 2 3 3 2 2 3 3 2 3 3 3 4 7 7 8 8 8 8 8 8 9 9
2 2 2 2 2 2 2 3 3 3 3 3 3 3 3 3 3 3 3 3 3 3 3 3 2 2 3 3 2 3 2 3 3 5 7 8 8 9 9 9 8 8 9
2 2 2 2 1 1 2 3 3 3 3 3 3 3 3 3 3 3 3 3 2 2 2 2 2 1 1 1 1 2 2 2 3 4 6 7 8 9 9 9 8 8 9
2 1 1 1 1 1 2 2 2 3 3 2 3 3 4 4 4 4 4 4 3 3 2 2 2 1 1 1 1 2 2 2 2 3 3 4 5 7 8 8 9 9 9
1 1 1 1 1 1 1 2 2 3 2 2 2 3 3 4 5 4 3 3 4 3 2 2 2 2 2 2 2 2 2 2 3 2 2 3 3 3 5 7 8 9 9
1 1 1 1 1 1 1 1 2 2 2 2 2 2 2 3 4 4 4 4 5 4 4 3 3 3 4 3 2 2 2 2 3 2 2 3 3 4 4 4 7 8 9
1 1 1 1 1 1 1 1 2 2 2 2 3 2 2 2 2 3 3 3 3 4 5 4 4 5 4 4 3 3 3 4 4 2 2 4 3 4 4 4 7 8 9
2 2 2 1 1 1 1 1 1 1 1 2 2 3 3 2 3 2 2 2 3 3 4 4 4 5 5 4 4 4 4 3 3 3 3 4 3 4 4 3 6 8 8
1 2 2 2 2 2 1 1 1 1 1 1 2 2 2 3 3 3 2 3 3 3 3 4 5 5 5 5 4 2 2 3 3 3 3 3 3 3 3 3 4 7 8
2 2 2 2 2 2 2 1 1 1 1 1 1 1 2 2 3 3 3 3 3 3 2 2 2 3 3 4 5 5 4 4 3 3 3 3 2 2 3 2 2 3 4
Wind_Direction
153 143 122 108 111 117 132 130 129 122 119 125 147 158 164 168 174 170 174 181 182 183 183 181 181 181 178 175 170 165 163 166 166 166 171 170 172 175 176 175 173 171 174
156 148 145 142 143 146 147 148 147 137 133 133 141 160 175 174 172 176 176 187 185 181 184 187 187 184 181 175 174 171 167 171 171 174 180 179 179 182 183 180 179 180 185
163 157 158 164 165 153 142 126 120 118 134 138 146 164 167 170 164 174 170 165 186 194 191 186 182 183 181 176 177 180 177 178 177 180 185 185 182 179 181 182 188 195 199
165 161 166 180 163 145 135 127 124 122 125 132 140 148 154 156 158 165 161 167 179 201 203 192 187 184 190 188 185 184 184 188 186 187 189 188 187 189 190 191 195 200 202
169 161 171 176 149 136 133 144 123 134 139 142 141 123 142 153 162 162 169 185 183 182 191 191 195 196 198 199 198 193 193 192 192 194 199 196 194 194 193 196 197 198 198
171 164 170 164 147 140 141 138 134 122 133 143 127 88 55 117 153 174 190 189 187 192 195 199 204 216 214 214 209 201 202 204 203 206 209 208 200 193 190 194 196 197 196
173 168 171 154 153 159 165 160 146 135 127 126 105 64 26 44 158 212 209 197 199 201 197 201 201 203 221 228 224 211 209 210 210 212 215 212 204 193 190 191 192 192 198
173 177 168 166 167 161 155 156 150 145 145 143 136 118 40 1 346 260 221 214 217 205 210 211 205 205 216 223 232 227 222 220 220 218 215 209 206 203 201 204 204 203 204
180 175 172 168 171 171 177 180 172 167 171 171 151 147 153 203 267 326 264 226 213 206 215 213 212 214 218 222 230 239 236 232 229 226 221 216 211 208 209 215 213 213 215
179 173 173 171 174 180 183 191 178 177 167 177 176 165 156 157 158 206 315 256 223 215 218 219 217 217 216 218 222 225 234 233 231 232 227 223 220 218 215 217 216 218 223
186 172 172 175 180 188 192 192 175 176 178 177 173 161 147 123 137 160 217 261 270 241 226 225 222 222 218 215 218 223 226 224 225 230 229 227 226 225 220 220 220 222 225
194 174 175 189 194 197 198 198 189 182 186 180 174 167 167 165 174 170 193 212 242 266 248 230 222 224 225 222 226 223 222 221 223 226 228 228 230 227 224 224 226 227 228
204 213 191 197 200 203 199 189 188 190 186 184 185 186 189 191 168 163 170 188 217 274 280 248 226 221 225 223 231 227 224 222 223 226 226 225 227 229 228 227 232 232 230
213 205 199 198 200 197 190 178 182 192 185 192 194 188 187 192 181 175 172 168 187 248 255 255 245 223 223 218 227 225 229 222 224 225 224 223 222 225 229 228 230 231 228
197 185 189 197 202 195 186 174 180 189 184 197 201 194 191 193 187 194 185 177 180 216 244 239 234 228 218 212 217 217 223 223 224 225 225 223 222 224 226 229 229 228 224
188 174 175 183 192 192 184 179 183 188 187 204 200 193 197 193 188 189 190 195 195 199 230 228 228 235 225 220 214 218 224 226 228 224 222 220 220 222 223 224 227 227 225
183 182 187 189 194 199 192 184 191 187 191 202 198 193 206 197 196 194 186 185 196 193 224 247 236 233 218 225 223 222 226 226 232 229 227 225 224 223 224 226 228 229 227
184 185 185 182 188 196 190 187 192 188 191 198 202 198 212 200 202 198 193 197 202 201 211 239 249 233 225 226 226 231 233 233 238 236 231 229 229 230 230 228 229 230 229
168 173 177 183 196 205 202 201 193 193 198 200 198 202 212 197 203 203 200 199 204 205 207 223 252 247 242 233 224 242 248 253 253 243 234 232 232 233 234 232 230 231 229
152 163 183 197 202 201 201 196 192 192 201 209 209 209 212 205 208 205 203 201 196 193 197 212 232 245 246 230 203 231 255 254 263 262 248 241 234 234 234 234 233 230 227
165 166 160 178 166 178 197 182 186 193 201 215 221 219 219 219 217 208 206 198 190 193 198 210 222 232 238 222 222 217 241 266 268 244 251 245 234 237 236 233 232 231 228
166 159 166 169 169 220 256 182 177 187 197 202 222 239 241 225 219 216 218 204 192 197 204 206 217 225 236 233 226 219 225 250 267 225 233 251 230 243 243 235 233 233 231
178 175 181 181 208 245 217 199 198 180 196 209 216 220 234 235 215 218 226 227 228 226 210 205 217 227 229 222 215 224 226 231 246 237 225 256 243 250 250 243 233 233 234
189 194 195 200 211 245 217 214 223 189 206 224 224 220 221 231 223 211 217 227 242 244 232 222 224 233 235 225 217 227 235 243 256 236 215 249 253 256 262 251 233 231 233
190 202 198 199 211 254 245 240 210 194 222 250 251 237 225 229 227 203 202 225 249 265 257 240 246 249 244 233 216 197 207 226 255 246 209 228 252 268 267 258 241 228 232
197 204 206 205 212 244 253 231 198 185 210 254 284 269 237 232 228 206 203 215 241 260 262 275 270 268 252 237 219 216 215 223 242 251 207 204 230 249 271 253 248 238 232